Read MPEC 2004-G38
Read MPEC 2004-G40
M.P.E.C. 2004-G39 Issued 2004 Apr. 15, 00:36 UT
The Minor Planet Electronic Circulars contain information on unusual
minor planets and routine data on comets. They are published
on behalf of Commission 20 of the International Astronomical Union by the
Minor Planet Center, Smithsonian Astrophysical Observatory,
Cambridge, MA 02138, U.S.A.
Supported in part by the Steven and Michele Kirsch Foundation
Prepared using the Tamkin Foundation Computer Network
MPC@CFA.HARVARD.EDU
URL http://cfa-www.harvard.edu/iau/mpc.html ISSN 1523-6714
COMET P/2004 F3 (NEAT)
Observations:
PK04F030 C2004 03 22.33589 13 47 02.52 +10 48 51.1 16.2 T EG039699
PK04F030 C2004 03 22.36118 13 47 01.65 +10 48 57.5 EG039699
PK04F030 C2004 03 22.38658 13 47 00.81 +10 49 03.8 EG039699
PK04F030 C2004 03 22.41193 13 46 59.99 +10 49 10.4 EG039699
PK04F030 C2004 03 29.26190 13 43 00.30 +11 16 47.4 15.5 T EG039701
PK04F030 C2004 03 29.28250 13 42 59.49 +11 16 51.3 15.5 T EG039701
PK04F030 C2004 03 29.30288 13 42 58.71 +11 16 56.4 15.6 T EG039701
PK04F030 C2004 03 29.81061 13 42 39.55 +11 18 48.0 16.3 T EG039A17
PK04F030 C2004 03 29.83107 13 42 38.72 +11 18 51.8 16.4 T EG039A17
PK04F030 C2004 03 30.06738 13 42 29.54 +11 19 44.5 16.4 N EG039J95
PK04F030 C2004 03 30.07162 13 42 29.38 +11 19 45.5 16.4 N EG039J95
PK04F030 C2004 03 30.07578 13 42 29.21 +11 19 46.4 16.3 N EG039J95
PK04F030 C2004 03 30.36898 13 42 18.07 +11 20 51.8 16.5 T EG039673
PK04F030 C2004 03 30.37153 13 42 17.98 +11 20 52.1 EG039673
PK04F030 C2004 03 30.37500 13 42 17.83 +11 20 53.0 EG039673
PK04F030 2004 03 30.73993 13 42 03.55 +11 22 12.4 16.6 T EG039372
PK04F030 2004 03 30.75764 13 42 02.94 +11 22 16.6 16.7 T EG039372
PK04F030 C2004 03 30.92010 13 41 56.75 +11 22 49.3 EG039048
PK04F030 C2004 03 30.92966 13 41 56.40 +11 22 50.9 EG039048
PK04F030 C2004 03 30.93076 13 41 56.34 +11 22 51.2 EG039048
PK04F030 C2004 03 30.93406 13 41 56.21 +11 22 51.8 EG039048
PK04F030 C2004 03 30.93628 13 41 56.16 +11 22 52.3 EG039048
PK04F030 C2004 03 30.93958 13 41 56.03 +11 22 53.3 EG039048
PK04F030 C2004 03 31.08311 13 41 50.22 +11 23 24.5 EG039A46
PK04F030 C2004 03 31.08429 13 41 50.16 +11 23 25.0 EG039A46
PK04F030 C2004 03 31.08549 13 41 50.15 +11 23 25.4 EG039A46
PK04F030 C2004 03 31.08666 13 41 50.09 +11 23 25.4 EG039A46
PK04F030 C2004 03 31.08781 13 41 50.04 +11 23 25.1 EG039A46
PK04F030 C2004 03 31.08898 13 41 49.98 +11 23 25.8 EG039A46
PK04F030 C2004 03 31.33624 13 41 40.44 +11 24 19.1 16.2 N EG039H41
PK04F030 C2004 03 31.33858 13 41 40.36 +11 24 19.5 15.7 T EG039H41
PK04F030 C2004 03 31.34069 13 41 40.29 +11 24 20.4 15.7 T EG039H41
PK04F030 C2004 03 31.69254 13 41 26.48 +11 25 34.6 EG039349
PK04F030 C2004 03 31.69407 13 41 26.43 +11 25 34.9 EG039349
PK04F030 C2004 03 31.69611 13 41 26.34 +11 25 35.3 16.1 T EG039349
PK04F030 C2004 03 31.71193 13 41 25.66 +11 25 38.8 16.2 T EG039360
PK04F030 C2004 03 31.71441 13 41 25.57 +11 25 39.4 EG039360
PK04F030 C2004 03 31.71677 13 41 25.46 +11 25 39.8 EG039360
PK04F030 C2004 04 01.23023 13 41 05.31 +11 27 25.5 16.6 T EG039750
PK04F030 C2004 04 01.24672 13 41 04.64 +11 27 29.0 16.3 T EG039750
PK04F030 C2004 04 01.27826 13 41 03.32 +11 27 35.4 16.5 T EG039750
PK04F030 C2004 04 01.40056 13 40 58.31 +11 28 00.8 16.3 N EG039H41
PK04F030 C2004 04 01.40427 13 40 58.20 +11 28 01.5 16.2 N EG039H41
PK04F030 C2004 04 01.40698 13 40 58.06 +11 28 01.8 14.9 T EG039H41
PK04F030 C2004 04 01.40834 13 40 58.05 +11 28 02.2 15.0 T EG039H41
PK04F030 C2004 04 02.55867 13 40 12.15 +11 31 53.4 16.1 T EG039355
PK04F030 C2004 04 02.56282 13 40 11.94 +11 31 54.0 EG039355
PK04F030 C2004 04 02.56472 13 40 11.91 +11 31 54.7 EG039355
PK04F030 C2004 04 02.70156 13 40 06.15 +11 32 21.8 EG039349
PK04F030 C2004 04 02.70310 13 40 06.09 +11 32 21.7 EG039349
PK04F030 C2004 04 02.70462 13 40 06.03 +11 32 22.1 EG039349
PK04F030 C2004 04 02.70767 13 40 05.93 +11 32 22.8 16.2 T EG039349
PK04F030 C2004 04 05.00253 13 38 31.67 +11 39 31.8 16.7 N EG039J95
PK04F030 C2004 04 05.00741 13 38 31.47 +11 39 32.6 16.3 N EG039J95
PK04F030 C2004 04 05.01692 13 38 31.08 +11 39 34.9 16.2 N EG039J95
PK04F030 C2004 04 05.94245 13 37 52.36 +11 42 16.9 EG039170
PK04F030 C2004 04 05.94288 13 37 52.35 +11 42 16.9 EG039170
PK04F030 C2004 04 05.94754 13 37 52.17 +11 42 17.5 EG039170
PK04F030 C2004 04 05.95179 13 37 51.99 +11 42 18.5 EG039170
PK04F030 C2004 04 08.36854 13 36 08.99 +11 48 48.3 15.8 T EG039H41
PK04F030 C2004 04 08.37303 13 36 08.77 +11 48 48.5 15.7 T EG039H41
PK04F030 C2004 04 08.37637 13 36 08.61 +11 48 48.8 15.7 T EG039H41
PK04F030 C2004 04 08.37884 13 36 08.50 +11 48 49.9 15.7 T EG039H41
PK04F030 C2004 04 08.54530 13 36 01.65 +11 49 15.0 16.0 T EG039360
PK04F030 C2004 04 08.54977 13 36 01.45 +11 49 15.5 EG039360
PK04F030 C2004 04 09.20733 13 35 32.99 +11 50 51.6 16.6 T EG039750
PK04F030 C2004 04 09.21104 13 35 32.82 +11 50 51.4 16.4 T EG039750
PK04F030 C2004 04 09.21510 13 35 32.68 +11 50 52.3 16.2 T EG039750
PK04F030 2004 04 09.55382 13 35 18.12 +11 51 41.9 16.2 T EG039372
PK04F030 2004 04 09.56354 13 35 17.70 +11 51 43.6 EG039372
PK04F030 C2004 04 09.60032 13 35 16.02 +11 51 47.9 16.3 T EG039D70
PK04F030 C2004 04 09.60471 13 35 15.82 +11 51 49.0 16.3 T EG039D70
PK04F030 C2004 04 09.60796 13 35 15.72 +11 51 49.6 16.3 T EG039D70
PK04F030 C2004 04 09.87101 13 35 04.34 +11 52 24.5 15.7 N EG039213
PK04F030 C2004 04 09.87771 13 35 04.08 +11 52 25.4 15.6 N EG039213
PK04F030 C2004 04 09.87855 13 35 04.05 +11 52 25.5 15.7 N EG039213
PK04F030 C2004 04 11.51770 13 33 52.66 +11 55 59.6 16.2 T EG039367
PK04F030 C2004 04 11.52083 13 33 52.56 +11 56 00.0 16.2 T EG039367
PK04F030 C2004 04 11.52395 13 33 52.41 +11 56 00.3 16.4 T EG039367
PK04F030 C2004 04 11.62045 13 33 48.04 +11 56 12.8 15.9 T EG039360
PK04F030 C2004 04 11.62289 13 33 47.92 +11 56 13.1 EG039360
PK04F030 C2004 04 11.90030 13 33 35.90 +11 56 45.8 15.2 N EG039442
PK04F030 C2004 04 11.90090 13 33 35.92 +11 56 45.7 15.3 N EG039442
PK04F030 C2004 04 11.92003 13 33 34.98 +11 56 48.3 15.5 N EG039939
PK04F030 C2004 04 11.92480 13 33 34.78 +11 56 48.9 15.5 N EG039939
PK04F030 C2004 04 11.92945 13 33 34.57 +11 56 49.5 15.5 N EG039939
PK04F030 C2004 04 12.01682 13 33 30.61 +11 56 59.4 EG039204
PK04F030 C2004 04 12.01905 13 33 30.51 +11 56 59.6 15.8 N EG039204
PK04F030 C2004 04 12.02128 13 33 30.36 +11 56 59.8 EG039204
PK04F030 C2004 04 12.05073 13 33 29.07 +11 57 03.2 15.5 N EG039213
PK04F030 C2004 04 12.05168 13 33 29.05 +11 57 03.4 15.5 N EG039213
PK04F030 C2004 04 12.05269 13 33 29.01 +11 57 03.6 15.5 N EG039213
PK04F030 C2004 04 12.26594 13 33 19.75 +11 57 29.3 15.2 T EG039701
PK04F030 C2004 04 12.30323 13 33 18.05 +11 57 33.5 15.2 T EG039701
PK04F030 C2004 04 12.33765 13 33 16.46 +11 57 37.4 15.1 T EG039701
PK04F030 C2004 04 12.89300 13 32 52.24 +11 58 39.0 EG039048
PK04F030 C2004 04 12.89527 13 32 52.13 +11 58 39.1 EG039048
PK04F030 C2004 04 12.89603 13 32 52.11 +11 58 39.1 EG039048
PK04F030 C2004 04 12.89678 13 32 52.09 +11 58 39.5 EG039048
PK04F030 C2004 04 12.89755 13 32 52.04 +11 58 39.6 EG039048
PK04F030 C2004 04 13.16359 13 32 40.41 +11 59 08.3 16.3 T EG039750
PK04F030 C2004 04 13.16899 13 32 40.16 +11 59 08.8 16.3 T EG039750
PK04F030 C2004 04 13.17536 13 32 39.87 +11 59 09.4 16.3 T EG039750
PK04F030 C2004 04 13.19749 13 32 38.88 +11 59 11.9 16.4 T EG039750
PK04F030 C2004 04 13.32833 13 32 33.00 +11 59 26.6 14.9 T EG039703
PK04F030 C2004 04 13.33889 13 32 32.52 +11 59 27.6 14.9 T EG039703
PK04F030 C2004 04 13.34939 13 32 32.03 +11 59 28.8 14.9 T EG039703
PK04F030 C2004 04 13.35991 13 32 31.55 +11 59 29.9 14.9 T EG039703
PK04F030 C2004 04 13.88743 13 32 08.62 +12 00 23.8 15.6 N EG039J78
PK04F030 C2004 04 13.89183 13 32 08.42 +12 00 24.1 15.6 N EG039J78
PK04F030 C2004 04 13.90166 13 32 08.01 +12 00 24.7 15.6 N EG039J78
PK04F030 C2004 04 14.00769 13 32 03.15 +12 00 34.7 16.1 N EG039J95
PK04F030 C2004 04 14.01089 13 32 03.01 +12 00 34.9 16.1 N EG039J95
PK04F030 C2004 04 14.01435 13 32 02.84 +12 00 35.4 16.1 N EG039J95
PK04F030 C2004 04 14.29367 13 31 50.52 +12 01 03.0 16.4 N EG039H41
PK04F030 C2004 04 14.29602 13 31 50.42 +12 01 03.6 16.4 N EG039H41
PK04F030 C2004 04 14.29854 13 31 50.27 +12 01 03.6 14.9 T EG039H41
PK04F030 C2004 04 14.30028 13 31 50.20 +12 01 04.1 14.9 T EG039H41
Observer details:
048 Hradec Kralove. Observer M. Lehky. 0.40-m f/5 reflector + CCD.
170 Observatorio de Begues. Observer J. Manteca. 0.36-m f/6.3 Schmidt
Cassegrain + CCD.
204 Schiaparelli Observatory. Observer L. Buzzi. 0.60-m f/4.64 Newtonian
+ CCD.
213 Observatorio Montcabre. Observer R. Naves. Measurer M. Campas. 0.30-m
f/5.5 Schmidt-Cassegrain + CCD.
349 Ageo. Observer K. Kadota. 0.25-m f/5.0 reflector + CCD.
355 Hadano. Observers A. Asami, D. J. Asher. 0.28-m f/5.0 reflector + CCD.
360 Kuma Kogen. Observer A. Nakamura. 0.60-m f/5.8 Ritchey-Chretien + CCD.
367 Yatsuka. Observer H. Abe. 0.26-m f/6 reflector + CCD.
372 Geisei. Observer T. Seki. 0.60-m f/3.5 reflector.
442 Gualba Observatory. Observer A. Sanchez. 0.31-m f/3.3 Schmidt-Cassegrain
+ CCD.
673 Table Mountain Observatory, Wrightwood. Observer J. Young. 0.6-m
reflector + CCD.
699 Lowell Observatory-LONEOS. Observer B. W. Koehn. 0.59-m LONEOS Schmidt
+ CCD.
701 Junk Bond Observatory, Sierra Vista. Observer D. Healy. 0.51-m
Cassegrain + CCD.
703 Catalina Sky Survey. Observers S. Larson, E. Beshore, E. Christensen,
R. Hill, S. Kolar, D. McLean. 0.68-m f/1.8 Schmidt + CCD.
750 Hobbs Observatory, Fall Creek. Observer R. Elliott. 0.3-m f/10
Schmidt-Cassegrain reflector + CCD.
939 Observatorio Rodeno. Observer J. Castellano. 0.20-m f/10
Schmidt-Cassegrain + CCD.
A17 Guidestar Observatory, Weinheim. Observers M. Emmerich, S. Melchert.
0.20-m Cassegrain f/9 + CCD.
A46 Lelekovice. Observer K. Hornoch. 0.35-m f/4.7 reflector + CCD.
D70 Tosa. Observer S. Shimomoto. 0.20-m f/6.3 Schmidt-Cassegrain + CCD.
H41 Petit Jean Mountain. Observer P. C. Sherrod. 0.41-m f/3.7
Schmidt-Cassegrain + CCD.
J78 Murcia. Observer J. Sanchez. 0.25-m f/3.3 Schmidt-Cassegrain + CCD.
J95 Great Shefford. Observer P. Birtwhistle. 0.30-m f/6.3 Schmidt-Cassegrain
+ CCD.
Orbital elements:
P/2004 F3 (NEAT)
T 2005 Jan. 4.4245 TT MPC
q 2.862890 (2000.0) P Q
n 0.1223158 Peri. 176.1955 -0.2560560 +0.9281217
a 4.019274 Node 78.8190 -0.8940068 -0.1210392
e 0.287710 Incl. 15.9895 -0.3676782 -0.3520505
P 8.06
From 185 observations 2004 Mar. 15-Apr. 14.
Ephemeris:
P/2004 F3 (NEAT)
Date TT R. A. (2000) Decl. Delta r Elong. Phase m1 m2
2004 04 05 13 38.53 +11 39.6 2.249 3.206 159.5 6.3 15.8
2004 04 15 13 31.32 +12 02.2 2.231 3.184 158.2 6.7 15.8
2004 04 25 13 24.09 +12 08.0 2.238 3.163 152.1 8.6 15.8
2004 05 05 13 17.58 +11 54.9 2.271 3.142 143.8 10.9 15.8
2004 05 15 13 12.38 +11 23.0 2.325 3.121 134.8 13.3 15.8
2004 05 25 13 08.91 +10 33.7 2.398 3.102 125.8 15.4 15.8
2004 06 04 13 07.40 +09 29.2 2.486 3.082 117.0 17.0 15.9
2004 06 14 13 07.88 +08 12.4 2.585 3.064 108.6 18.3 15.9
2004 06 24 13 10.31 +06 45.8 2.692 3.046 100.5 19.2 16.0
2004 07 04 13 14.55 +05 11.6 2.804 3.029 92.8 19.6 16.1
Brian G. Marsden (C) Copyright 2004 MPC M.P.E.C. 2004-G39
Read MPEC 2004-G38
Read MPEC 2004-G40
Our Web policy. Index to the CBAT/MPC/ICQ pages.